Location: Unspecified
(22.6800°N, 112.2000°E)
Time: 15:44:20
(UTC+08:00)

S-56A Canister/Altair - Pass Details

Date: 26 July 2021
Orbit: 632 x 2500 km, 38.9° (Epoch: 24 September)

Event Time Altitude Azimuth Distance (km) Brightness Sun altitude
Rises 12:16:43 0° 174° (S) 4,923 11.7 84.1°
Reaches altitude 10° 12:22:50 10° 148° (SSE) 4,377 11.6 85.2°
Maximum altitude 12:27:16 13° 126° (SE) 4,429 11.7 85.9°
Drops below altitude 10° 12:32:04 10° 105° (ESE) 4,874 11.8 86.4°
Sets 12:39:49 0° 81° (E) 6,120 12.1 86.7°
